{"data":{"norad_id":69007,"epoch":"2026-05-24T23:23:02.984640Z","epoch_age_seconds":70414,"freshness":"FRESH","line1":"1 69007U 26100AD  26144.97434010  .00002909  00000+0  13308-3 0  9993","line2":"2 69007  97.4068  43.2475 0009303 127.8386 232.3693 15.21285702  3276","mean_motion":15.21285702,"eccentricity":0.0009303,"inclination_deg":97.4068,"raan_deg":43.2475,"arg_perigee_deg":127.8386,"mean_anomaly_deg":232.3693,"bstar":0.00013308,"rev_number":327,"period_min":94.656776048501,"perigee_km":495.56088721485,"apogee_km":508.36199837752,"semimajor_km":6880.0984427962,"source":"CELESTRAK","updated_at":"2026-05-25T13:38:09.038513Z"}}